• en France
  • Liste des pays
  • À 7 jours
  • Température de l'eau
  • Carte satellitaire
  • Carte météo
  • Widgets météo
  • user-avatar
    Se connecter

    Météo par heure à Pabna

    Ce jour, 24 Septembre, Dimanche

    Heure Température Précipitation Vent Pression Humidité
    00:00 +31°C° 0 mm 3 m/s 753 mmHg 76%
    01:00 +31°C° 0 mm 3 m/s 753 mmHg 78%
    02:00 +30°C° 0 mm 3 m/s 752 mmHg 80%
    03:00 +30°C° 0 mm 3 m/s 752 mmHg 81%
    04:00 +30°C° 0,2 mm 2 m/s 752 mmHg 82%
    05:00 +29°C° 0,2 mm 2 m/s 752 mmHg 83%
    06:00 +29°C° 0 mm 2 m/s 753 mmHg 86%
    07:00 +31°C° 0 mm 2 m/s 753 mmHg 80%
    08:00 +32°C° 0 mm 2 m/s 753 mmHg 75%
    09:00 +34°C° 0 mm 2 m/s 753 mmHg 70%
    10:00 +35°C° 0,1 mm 2 m/s 753 mmHg 66%
    11:00 +36°C° 0,1 mm 2 m/s 753 mmHg 61%
    12:00 +37°C° 0 mm 2 m/s 753 mmHg 58%
    13:00 +37°C° 0,3 mm 2 m/s 752 mmHg 57%
    14:00 +37°C° 0,3 mm 2 m/s 751 mmHg 56%
    15:00 +37°C° 0,3 mm 2 m/s 750 mmHg 56%
    16:00 +36°C° 0,1 mm 2 m/s 750 mmHg 59%
    17:00 +36°C° 0,1 mm 2 m/s 750 mmHg 63%
    18:00 +34°C° 0,1 mm 1 m/s 749 mmHg 66%
    19:00 +33°C° 0 mm 1 m/s 750 mmHg 67%
    20:00 +33°C° 0 mm 1 m/s 750 mmHg 69%
    21:00 +32°C° 0 mm 1 m/s 751 mmHg 70%
    22:00 +32°C° 0,1 mm 2 m/s 751 mmHg 71%
    23:00 +32°C° 0,1 mm 2 m/s 751 mmHg 72%

    Demain, 25 Septembre, Lundi

    Heure Température Précipitation Vent Pression Humidité
    00:00 +32°C° 0,1 mm 2 m/s 751 mmHg 73%
    01:00 +31°C° 0,3 mm 2 m/s 751 mmHg 75%
    02:00 +31°C° 0,3 mm 2 m/s 750 mmHg 76%
    03:00 +31°C° 0,3 mm 2 m/s 750 mmHg 78%
    04:00 +30°C° 0,4 mm 2 m/s 750 mmHg 79%
    05:00 +30°C° 0,4 mm 2 m/s 750 mmHg 79%
    06:00 +30°C° 0,4 mm 1 m/s 751 mmHg 80%
    07:00 +31°C° 0,1 mm 1 m/s 751 mmHg 75%
    08:00 +33°C° 0,1 mm 1 m/s 751 mmHg 69%
    09:00 +34°C° 0,1 mm 1 m/s 752 mmHg 64%
    10:00 +35°C° 0 mm 1 m/s 751 mmHg 60%
    11:00 +36°C° 0 mm 1 m/s 751 mmHg 56%
    12:00 +37°C° 0 mm 1 m/s 750 mmHg 52%
    13:00 +37°C° 0 mm 1 m/s 750 mmHg 52%
    14:00 +37°C° 0 mm 1 m/s 749 mmHg 52%
    15:00 +37°C° 0 mm 1 m/s 748 mmHg 52%
    16:00 +36°C° 0 mm 1 m/s 748 mmHg 55%
    17:00 +35°C° 0 mm 1 m/s 748 mmHg 58%
    18:00 +35°C° 0 mm 1 m/s 748 mmHg 61%
    19:00 +34°C° 0 mm 1 m/s 748 mmHg 62%
    20:00 +34°C° 0 mm 1 m/s 749 mmHg 64%
    21:00 +33°C° 0 mm 1 m/s 750 mmHg 66%
    22:00 +33°C° 0 mm 1 m/s 750 mmHg 67%
    23:00 +33°C° 0 mm 1 m/s 750 mmHg 68%

    Après-demain, 26 Septembre, Mardi

    Heure Température Précipitation Vent Pression Humidité
    00:00 +33°C° 0 mm 1 m/s 750 mmHg 69%
    01:00 +32°C° 0 mm 1 m/s 750 mmHg 71%
    02:00 +32°C° 0 mm 1 m/s 750 mmHg 72%
    03:00 +32°C° 0 mm 1 m/s 749 mmHg 73%
    04:00 +31°C° 0,1 mm 1 m/s 750 mmHg 74%
    05:00 +31°C° 0,1 mm 1 m/s 750 mmHg 76%
    06:00 +31°C° 0,1 mm 1 m/s 750 mmHg 77%
    07:00 +32°C° 0 mm 1 m/s 751 mmHg 73%
    08:00 +34°C° 0 mm 2 m/s 751 mmHg 70%
    09:00 +35°C° 0 mm 2 m/s 752 mmHg 66%
    10:00 +36°C° 0,4 mm 2 m/s 752 mmHg 63%
    11:00 +35°C° 0,4 mm 1 m/s 751 mmHg 59%
    12:00 +36°C° 0,4 mm 1 m/s 751 mmHg 56%
    13:00 +36°C° 0,2 mm 1 m/s 750 mmHg 56%
    14:00 +36°C° 0,2 mm 1 m/s 749 mmHg 55%
    15:00 +36°C° 0,2 mm 1 m/s 749 mmHg 54%
    16:00 +36°C° 0 mm 1 m/s 749 mmHg 57%
    17:00 +35°C° 0 mm 1 m/s 749 mmHg 60%
    18:00 +34°C° 0 mm 1 m/s 749 mmHg 63%
    19:00 +34°C° 0 mm 1 m/s 750 mmHg 65%
    20:00 +33°C° 0 mm 1 m/s 750 mmHg 67%
    21:00 +34°C° 0 mm 2 m/s 751 mmHg 68%
    22:00 +32°C° 0 mm 2 m/s 751 mmHg 70%
    23:00 +32°C° 0 mm 2 m/s 751 mmHg 71%

    27 Septembre, Mercredi

    Heure Température Précipitation Vent Pression Humidité
    00:00 +32°C° 0 mm 2 m/s 751 mmHg 72%
    01:00 +32°C° 0,7 mm 2 m/s 750 mmHg 74%
    02:00 +31°C° 0,7 mm 1 m/s 750 mmHg 76%
    03:00 +31°C° 0,7 mm 1 m/s 750 mmHg 78%
    04:00 +31°C° 0,8 mm 1 m/s 750 mmHg 79%
    05:00 +31°C° 0,8 mm 1 m/s 750 mmHg 80%
    06:00 +30°C° 0,8 mm 1 m/s 751 mmHg 81%
    07:00 +31°C° 0,6 mm 1 m/s 751 mmHg 77%
    08:00 +32°C° 0,6 mm 1 m/s 752 mmHg 73%
    09:00 +33°C° 0,6 mm 1 m/s 753 mmHg 69%
    10:00 +34°C° 0,5 mm 1 m/s 752 mmHg 65%
    11:00 +35°C° 0,5 mm 1 m/s 752 mmHg 61%
    12:00 +36°C° 0,5 mm 1 m/s 751 mmHg 57%
    13:00 +36°C° 0 mm 1 m/s 751 mmHg 56%
    14:00 +34°C° 0 mm 0 m/s 750 mmHg 55%
    15:00 +34°C° 0 mm 0 m/s 749 mmHg 53%
    16:00 +36°C° 0 mm 1 m/s 749 mmHg 57%
    17:00 +35°C° 0 mm 1 m/s 749 mmHg 61%
    18:00 +35°C° 0 mm 2 m/s 749 mmHg 65%
    19:00 +34°C° 0 mm 2 m/s 750 mmHg 68%
    20:00 +34°C° 0 mm 2 m/s 750 mmHg 70%
    21:00 +32°C° 0 mm 2 m/s 751 mmHg 73%
    22:00 +32°C° 0,1 mm 2 m/s 751 mmHg 75%
    23:00 +31°C° 0,1 mm 2 m/s 751 mmHg 76%

    28 Septembre, Jeudi

    Heure Température Précipitation Vent Pression Humidité
    00:00 +31°C° 0,1 mm 2 m/s 751 mmHg 78%
    01:00 +31°C° 1,8 mm 2 m/s 750 mmHg 79%
    02:00 +31°C° 1,8 mm 2 m/s 750 mmHg 81%
    03:00 +30°C° 1,8 mm 2 m/s 750 mmHg 82%
    04:00 +30°C° 1,9 mm 2 m/s 750 mmHg 83%
    05:00 +30°C° 1,9 mm 2 m/s 751 mmHg 84%
    06:00 +29°C° 1,9 mm 2 m/s 751 mmHg 85%
    07:00 +30°C° 0,3 mm 2 m/s 752 mmHg 85%
    08:00 +30°C° 0,3 mm 2 m/s 752 mmHg 84%
    09:00 +30°C° 0,3 mm 2 m/s 753 mmHg 83%
    10:00 +31°C° 0,1 mm 2 m/s 752 mmHg 77%
    11:00 +32°C° 0,1 mm 1 m/s 752 mmHg 70%
    12:00 +33°C° 0,1 mm 1 m/s 751 mmHg 64%
    13:00 +35°C° 0 mm 2 m/s 751 mmHg 61%
    14:00 +36°C° 0 mm 2 m/s 750 mmHg 58%
    15:00 +36°C° 0 mm 3 m/s 749 mmHg 56%
    16:00 +35°C° 0,1 mm 2 m/s 749 mmHg 60%
    17:00 +34°C° 0,1 mm 2 m/s 749 mmHg 65%
    18:00 +32°C° 0,1 mm 2 m/s 750 mmHg 69%
    19:00 +32°C° 0,2 mm 1 m/s 750 mmHg 72%
    20:00 +31°C° 0,2 mm 1 m/s 751 mmHg 74%
    21:00 +31°C° 0,2 mm 1 m/s 751 mmHg 77%
    22:00 +30°C° 0,9 mm 1 m/s 751 mmHg 79%
    23:00 +30°C° 0,9 mm 1 m/s 751 mmHg 80%

    29 Septembre, Vendredi

    Heure Température Précipitation Vent Pression Humidité
    00:00 +30°C° 0,9 mm 1 m/s 751 mmHg 82%
    01:00 +30°C° 0,3 mm 1 m/s 751 mmHg 83%
    02:00 +29°C° 0,3 mm 1 m/s 750 mmHg 84%
    03:00 +29°C° 0,3 mm 1 m/s 750 mmHg 85%
    04:00 +29°C° 0,5 mm 1 m/s 751 mmHg 85%
    05:00 +29°C° 0,5 mm 1 m/s 751 mmHg 86%
    06:00 +27°C° 0,5 mm 0 m/s 751 mmHg 86%
    07:00 +30°C° 0,4 mm 1 m/s 752 mmHg 82%
    08:00 +30°C° 0,4 mm 1 m/s 752 mmHg 78%
    09:00 +31°C° 0,4 mm 1 m/s 752 mmHg 74%
    10:00 +32°C° 1,2 mm 1 m/s 752 mmHg 71%
    11:00 +32°C° 1,2 mm 2 m/s 751 mmHg 68%
    12:00 +34°C° 1,2 mm 2 m/s 751 mmHg 65%
    13:00 +34°C° 1,3 mm 2 m/s 750 mmHg 66%
    14:00 +34°C° 1,3 mm 2 m/s 749 mmHg 66%
    15:00 +34°C° 1,3 mm 2 m/s 749 mmHg 67%
    16:00 +32°C° 1,2 mm 2 m/s 749 mmHg 72%
    17:00 +31°C° 1,2 mm 2 m/s 749 mmHg 77%
    18:00 +30°C° 1,2 mm 2 m/s 749 mmHg 82%
    19:00 +30°C° 0,8 mm 2 m/s 750 mmHg 83%
    20:00 +30°C° 0,8 mm 2 m/s 751 mmHg 85%
    21:00 +29°C° 0,8 mm 2 m/s 751 mmHg 87%
    22:00 +29°C° 0,6 mm 2 m/s 751 mmHg 88%
    23:00 +29°C° 0,6 mm 2 m/s 751 mmHg 89%
    Voir plus